Temperature
21 19 19 20 19 21 21 20 20 19 20 18 17 17 17 17 16 16 16 16 16 16 16 16 16 16 16 16 16 16 16 15 15 15 14 14 14 14 14 14 14 14 14 14
20 20 21 21 20 20 20 20 19 19 19 18 17 17 17 16 16 16 16 16 16 16 16 16 16 16 16 15 15 15 15 15 15 14 14 14 14 14 14 14 14 14 14 14
21 22 22 22 21 21 21 20 19 19 19 18 18 17 17 16 16 16 16 16 16 16 16 16 15 15 15 15 15 15 15 14 14 14 14 14 14 14 14 14 14 13 13 13
21 21 22 22 22 21 20 21 20 19 18 17 18 17 17 16 15 15 15 16 16 16 16 16 15 15 15 15 15 15 14 14 14 14 14 13 13 13 13 13 13 13 13 13
22 22 22 22 22 21 21 19 19 18 17 16 16 16 16 16 15 15 15 15 15 15 15 15 15 15 15 15 14 14 14 14 14 14 13 13 13 13 13 13 13 13 13 13
21 22 22 22 22 21 20 18 17 15 15 16 16 16 16 15 15 15 15 15 15 15 15 15 15 15 15 14 14 14 14 14 14 13 13 13 13 13 13 13 13 13 13 13
21 21 22 22 21 20 19 18 17 17 16 16 16 16 15 16 15 15 15 15 15 15 15 15 15 15 14 14 14 14 14 14 13 13 13 13 13 13 13 12 12 12 12 12
20 20 21 21 21 20 19 18 17 17 16 16 16 16 15 16 16 16 15 15 15 15 15 15 15 15 14 14 14 14 14 14 13 13 13 13 13 13 12 12 12 12 12 12
19 20 21 21 20 20 19 17 16 15 16 15 15 15 16 16 15 15 15 15 15 15 15 15 15 15 14 14 14 14 14 14 13 13 13 13 13 12 12 12 12 12 12 12
19 19 20 20 20 18 18 16 14 15 16 16 16 16 15 15 15 14 14 14 15 15 15 15 15 14 14 14 14 14 14 14 13 13 13 13 13 12 12 12 12 12 12 12
19 18 19 19 19 19 18 16 14 13 14 15 15 15 15 15 14 14 13 14 15 15 15 15 14 14 14 14 14 14 13 13 13 13 13 13 13 12 12 12 12 12 12 12
17 16 17 18 19 19 18 17 15 16 15 14 14 14 15 14 14 14 14 15 15 15 15 15 14 14 14 14 14 14 13 13 13 13 13 13 12 12 12 12 12 12 12 12
17 16 16 17 17 18 18 16 15 13 13 13 14 15 15 14 14 14 14 15 15 15 15 14 14 14 14 14 14 13 13 13 13 13 13 12 12 12 12 12 12 12 12 12
16 15 16 17 17 17 17 17 15 14 14 14 14 15 15 14 13 14 14 15 15 14 14 14 14 14 14 14 13 13 13 13 13 13 13 12 12 12 12 12 12 12 12 12
16 16 17 17 17 17 17 17 16 15 15 14 15 14 14 14 13 14 14 14 14 14 14 14 14 14 14 14 14 13 13 13 13 13 13 12 12 12 12 12 12 12 12 12
14 16 16 17 17 17 17 17 17 16 15 15 15 15 14 14 14 14 14 14 14 14 14 14 14 14 14 14 14 13 13 13 13 13 12 12 12 12 12 12 12 12 12 12
13 15 15 15 16 17 16 16 16 16 15 15 15 15 13 13 13 14 14 14 14 14 14 14 14 14 14 14 13 13 13 13 13 13 12 12 12 12 12 12 12 12 12 12
13 13 12 14 16 16 16 16 16 16 15 15 14 14 13 14 14 15 15 15 14 14 14 14 14 14 14 13 13 13 13 13 13 12 12 12 12 12 12 12 12 12 12 12
13 13 12 13 15 15 16 16 16 15 15 14 14 13 14 14 14 14 15 15 15 15 14 14 14 14 13 13 13 13 13 13 13 12 12 12 12 12 12 12 12 12 12 12
12 12 13 13 15 15 16 17 16 16 15 15 14 13 13 13 12 13 15 15 15 15 14 14 14 14 13 13 13 13 13 13 12 12 12 12 12 12 12 12 12 12 12 12
14 13 13 13 14 14 15 16 16 16 15 15 15 14 14 13 14 15 15 15 15 14 14 14 14 14 13 13 13 13 13 13 12 12 12 12 12 12 12 12 12 12 12 12
14 13 13 12 14 14 15 15 15 14 16 16 16 15 15 15 16 15 15 15 15 14 14 14 13 13 13 13 13 13 13 13 12 12 12 12 12 12 12 12 12 12 12 12
13 13 12 12 13 14 15 16 16 16 16 16 16 16 16 15 15 15 15 15 14 14 14 13 13 13 13 13 13 13 13 13 13 12 12 12 12 12 12 12 12 12 12 12
13 12 11 12 13 14 15 16 16 16 16 16 16 16 16 15 15 15 15 14 14 14 13 13 13 13 13 13 13 13 13 12 12 12 12 12 12 12 12 12 12 12 12 12
12 12 11 12 12 14 15 16 16 16 16 16 16 16 15 15 15 15 15 14 14 14 13 13 13 13 13 13 12 12 12 12 12 12 12 12 12 12 12 12 12 12 12 12
11 12 12 12 13 12 14 16 16 16 16 16 15 15 15 15 15 15 14 14 14 13 13 13 13 12 12 12 12 12 12 12 12 12 12 12 12 12 12 12 12 12 12 12
Wind_Speed
3 4 3 6 7 6 4 3 3 4 1 4 4 3 2 4 4 4 2 2 1 0 0 1 1 2 2 2 1 1 1 2 1 0 1 1 2 1 1 1 0 0 1 1
4 2 7 4 3 4 4 3 2 2 2 4 5 4 2 3 2 2 3 2 1 0 1 1 1 1 1 0 1 2 2 2 2 1 1 2 2 2 2 1 1 1 1 1
5 5 1 2 1 2 3 5 5 3 3 4 4 3 2 1 2 1 0 1 1 1 2 1 1 0 0 1 1 2 2 2 2 1 0 0 1 1 1 1 2 2 2 2
3 3 1 1 1 2 3 3 4 5 4 1 1 1 2 0 1 1 2 1 1 2 1 1 1 1 2 2 2 2 2 2 1 0 1 1 1 1 2 2 2 3 3 3
3 1 1 1 2 2 2 2 4 4 5 3 4 2 4 1 2 4 3 3 3 2 1 1 1 2 2 2 2 2 2 2 1 1 1 1 1 2 1 1 2 3 3 3
3 2 1 2 1 2 3 6 7 6 5 2 2 2 4 3 4 3 3 3 2 1 1 2 2 1 2 1 2 2 2 2 2 1 1 1 2 2 1 2 2 2 2 3
6 5 4 2 3 4 5 5 4 4 4 3 2 1 5 4 2 3 3 3 2 1 1 2 3 3 3 2 2 2 2 2 2 1 1 2 2 3 3 3 2 3 2 3
2 4 4 3 1 2 1 6 6 4 4 3 2 2 5 2 1 1 1 1 1 1 1 2 3 3 3 3 2 2 2 2 2 2 2 2 2 2 2 3 3 3 3 3
1 4 4 3 2 4 3 2 4 6 2 0 3 4 4 1 2 2 1 1 2 2 2 3 3 3 3 3 3 2 2 2 3 2 2 2 2 2 2 3 2 2 3 3
4 2 4 3 5 6 4 6 5 5 3 1 3 3 3 4 3 2 2 2 3 3 3 3 3 4 4 3 3 2 1 2 3 2 2 2 2 2 2 2 2 3 3 2
3 2 4 4 3 1 3 4 5 4 4 4 2 5 3 5 4 3 3 3 3 3 3 3 4 4 3 3 2 2 2 2 2 2 2 2 2 2 1 1 2 3 3 2
3 4 1 3 3 1 2 4 5 3 2 3 3 5 3 2 2 2 3 3 3 3 3 3 3 3 3 3 3 3 2 2 3 2 1 2 2 2 2 2 3 2 2 2
4 5 3 6 6 5 3 2 3 5 4 3 3 5 3 1 0 1 2 3 2 3 3 2 2 3 3 3 3 3 3 3 3 1 1 2 2 2 2 2 2 2 2 2
5 5 5 5 5 2 2 1 3 5 3 3 5 5 4 3 2 3 3 3 2 2 2 2 2 3 4 4 3 3 3 3 1 0 0 1 2 2 2 2 2 2 1 2
5 3 2 2 3 2 1 2 0 3 5 5 5 5 6 6 5 4 2 1 1 2 3 3 3 3 4 4 4 3 3 2 1 0 0 1 2 1 1 2 2 2 2 2
4 3 2 2 1 1 1 3 1 1 2 3 2 5 4 2 1 1 1 1 2 3 4 4 4 4 4 4 4 3 2 2 0 0 1 1 1 1 1 1 2 2 2 2
3 4 3 2 3 3 3 3 2 2 2 3 4 5 1 1 2 4 4 3 3 4 4 4 4 4 4 4 3 2 2 1 0 1 1 1 1 1 2 2 1 2 2 2
6 5 3 0 3 2 5 2 2 2 1 1 2 2 2 4 3 3 3 4 4 4 4 4 4 4 4 3 3 2 1 0 0 0 1 1 1 1 2 2 2 2 2 1
5 7 4 3 1 4 4 1 3 2 3 2 2 2 2 2 2 3 4 4 5 5 4 4 4 3 3 3 2 1 1 0 0 1 2 2 2 2 2 2 2 2 1 2
5 5 5 4 2 4 5 3 1 3 3 3 2 2 1 2 1 5 4 4 4 4 3 3 3 2 3 3 2 0 1 1 2 3 3 2 2 2 2 2 2 1 1 1
3 3 3 3 3 5 4 2 2 2 5 3 4 4 4 4 6 5 4 3 3 3 3 2 2 2 4 3 1 2 2 3 4 3 2 2 2 2 2 1 1 0 0 1
4 3 3 4 2 5 2 3 3 6 3 3 4 4 5 5 4 3 3 3 3 2 2 2 2 3 3 2 1 3 4 5 3 2 2 3 2 2 1 1 1 0 0 1
4 6 5 6 6 5 2 4 4 3 3 3 4 4 4 3 3 3 3 3 3 3 2 2 2 3 4 3 2 4 5 4 2 2 3 3 2 2 1 1 1 1 1 1
2 2 3 2 5 4 4 2 2 3 3 4 4 4 4 4 4 3 3 3 3 3 3 2 2 3 4 4 3 4 4 3 2 2 3 3 2 2 1 1 2 2 2 2
4 2 1 3 4 4 4 3 3 2 2 2 1 2 3 3 3 4 4 5 4 4 3 3 3 4 5 4 4 4 3 1 1 2 2 2 2 2 2 2 3 3 4 5
3 5 5 6 6 4 6 5 2 2 3 3 1 1 2 2 4 4 4 4 4 4 3 3 4 4 5 4 4 4 3 2 2 2 2 2 2 2 2 2 3 4 5 6
Wind_Direction
78 78 221 226 203 200 192 192 244 262 200 105 117 114 114 120 118 123 134 146 144 214 328 46 43 61 58 27 4 326 333 332 332 287 271 258 249 260 269 268 296 319 234 206
49 265 241 212 180 167 187 202 245 307 72 114 107 75 78 101 139 152 168 180 196 321 6 10 45 48 52 337 316 311 310 301 295 257 244 225 226 241 241 262 328 329 275 244
188 239 201 125 101 138 208 197 208 188 74 78 97 31 29 56 69 63 146 207 221 214 228 269 294 285 292 279 287 295 284 288 293 284 300 27 39 354 5 337 318 305 295 267
236 267 135 128 192 162 259 237 183 157 123 88 90 197 283 277 341 321 297 294 272 269 262 262 263 285 283 272 282 286 283 289 292 263 144 150 174 228 246 262 282 304 304 286
264 264 132 206 250 177 226 54 101 108 115 75 32 119 282 350 291 285 292 307 305 303 287 283 259 258 280 286 300 295 308 315 308 293 177 171 215 229 268 292 295 301 302 293
281 294 170 210 12 100 117 68 59 53 71 50 309 158 274 249 239 268 292 307 301 301 322 316 316 311 302 309 312 302 319 323 322 323 279 204 224 242 281 290 284 290 299 300
345 345 351 56 44 22 62 79 40 8 14 260 291 174 251 259 235 215 242 271 283 278 300 323 320 318 310 307 303 303 320 328 330 331 299 257 236 227 234 252 258 277 292 292
18 313 322 0 127 197 95 127 151 198 221 270 331 252 263 279 285 237 219 247 276 290 300 291 296 296 293 294 300 303 311 309 314 309 293 285 268 253 254 252 253 262 267 272
163 274 317 2 24 116 109 100 145 129 122 42 291 296 311 8 4 6 347 331 286 285 300 302 312 307 296 294 288 275 281 297 304 298 300 300 294 282 277 276 274 278 278 279
156 268 313 318 51 36 99 132 89 101 132 264 297 284 265 275 286 307 314 288 285 293 310 315 313 304 300 295 295 303 286 281 289 296 296 302 298 286 278 290 294 292 292 295
109 128 327 15 49 337 58 74 87 98 137 156 252 275 237 221 232 238 259 263 270 278 288 298 300 300 307 325 326 312 304 293 291 295 304 316 307 300 302 299 294 298 305 299
96 113 333 298 304 352 116 136 138 138 216 167 180 270 304 214 216 222 258 273 280 279 286 294 308 326 335 327 320 311 296 280 274 273 294 308 315 335 332 319 315 321 319 317
117 97 43 352 349 6 48 82 111 117 116 148 173 265 329 22 336 250 256 268 277 295 304 314 322 321 314 308 303 301 288 275 276 270 288 323 337 340 325 317 323 335 336 342
108 98 147 197 236 260 314 30 114 117 136 196 219 247 288 294 282 276 272 271 269 287 299 306 311 307 299 295 293 295 289 287 278 226 311 323 323 316 312 318 331 336 346 354
92 119 174 225 245 194 252 305 160 164 183 189 231 231 255 249 244 246 255 274 306 311 305 294 291 292 296 305 308 305 297 297 286 123 289 278 296 321 342 349 337 343 354 337
78 122 101 351 333 60 333 317 280 221 189 202 232 260 264 256 202 216 253 242 269 287 291 294 295 295 294 296 298 304 300 293 267 150 262 273 307 333 337 327 331 342 335 328
104 122 109 276 312 13 311 275 223 226 216 181 220 250 271 299 224 224 226 226 244 265 278 283 284 281 282 283 283 284 273 287 146 225 273 283 292 307 299 304 337 326 316 323
134 118 125 120 31 263 258 274 168 162 242 210 250 275 237 238 244 237 218 211 238 261 270 274 278 289 298 301 301 290 305 355 189 245 282 283 280 283 299 318 322 313 313 317
137 133 120 118 175 285 293 266 156 159 273 240 219 289 323 355 19 302 238 217 226 239 255 260 262 266 286 293 285 307 351 349 265 272 281 279 263 261 284 297 299 302 315 321
67 93 115 126 157 242 259 283 177 114 296 264 199 222 277 82 38 276 258 232 243 254 260 263 274 286 286 284 289 274 281 283 263 263 263 266 252 238 252 259 266 271 279 300
59 61 116 152 201 260 266 285 104 121 258 257 206 213 194 197 222 253 254 233 235 244 259 273 275 278 275 279 249 250 261 258 256 262 268 262 250 237 242 241 240 259 302 343
171 157 176 148 181 253 269 113 167 221 245 226 212 215 213 234 259 261 243 235 243 257 277 278 285 288 289 276 238 256 266 267 266 265 266 263 260 256 257 236 278 319 325 321
187 187 183 187 212 245 238 213 234 194 216 232 223 236 215 231 256 245 237 241 244 245 263 275 269 292 302 285 243 249 268 274 264 262 266 265 264 263 246 223 242 285 280 270
280 130 136 254 275 273 273 274 275 225 229 242 233 227 202 219 242 243 237 240 246 248 256 262 269 282 290 290 272 258 274 275 256 258 269 271 271 285 281 252 234 235 247 251
233 153 153 258 279 312 305 279 268 286 291 282 274 230 212 217 239 230 231 237 236 243 249 241 239 251 267 279 282 279 280 262 250 261 274 281 270 268 274 272 251 243 245 230
209 185 183 224 227 208 255 269 265 251 262 243 241 310 284 232 241 239 240 242 239 248 255 260 258 256 262 271 277 280 272 230 218 259 272 270 273 272 269 279 297 272 254 267
Height
1487 1492 1496 1493 1491 1492 1494 1498 1501 1498 1493 1497 1501 1502 1501 1501 1502 1503 1503 1503 1503 1503 1504 1504 1503 1502 1501 1501 1501 1500 1499 1498 1496 1496 1495 1494 1494 1494 1494 1493 1493 1493 1493 1494
1492 1494 1486 1485 1486 1490 1493 1499 1501 1498 1494 1498 1503 1505 1502 1502 1503 1503 1503 1502 1502 1502 1502 1502 1502 1501 1501 1500 1500 1498 1497 1496 1494 1493 1493 1492 1491 1492 1492 1491 1491 1491 1491 1492
1490 1487 1481 1484 1487 1490 1493 1496 1497 1499 1498 1499 1503 1508 1506 1504 1503 1503 1503 1502 1502 1501 1500 1500 1500 1500 1499 1499 1498 1496 1495 1494 1493 1492 1491 1490 1490 1490 1489 1489 1489 1489 1490 1489
1487 1482 1482 1484 1487 1488 1495 1487 1489 1494 1503 1511 1507 1520 1510 1506 1505 1503 1502 1501 1500 1500 1499 1499 1499 1498 1498 1497 1496 1495 1494 1492 1491 1490 1489 1488 1488 1488 1487 1487 1487 1487 1487 1487
1485 1482 1483 1485 1484 1484 1488 1486 1489 1495 1504 1512 1512 1519 1515 1507 1507 1503 1501 1500 1499 1499 1498 1498 1497 1497 1497 1496 1495 1494 1492 1491 1490 1489 1488 1488 1487 1487 1486 1485 1485 1485 1485 1485
1482 1479 1480 1481 1480 1482 1485 1490 1496 1503 1510 1521 1515 1518 1518 1510 1505 1502 1501 1500 1499 1498 1497 1497 1496 1496 1495 1495 1494 1493 1491 1490 1489 1488 1487 1487 1486 1485 1484 1484 1484 1483 1483 1483
1489 1483 1480 1480 1484 1485 1488 1501 1516 1519 1527 1524 1514 1516 1515 1503 1500 1500 1499 1498 1498 1497 1496 1496 1495 1494 1494 1493 1492 1491 1490 1489 1488 1487 1486 1486 1485 1484 1483 1482 1482 1481 1481 1481
1500 1499 1485 1482 1485 1489 1492 1498 1517 1526 1529 1525 1516 1517 1510 1500 1498 1498 1498 1498 1497 1496 1496 1495 1494 1493 1493 1492 1491 1490 1489 1488 1487 1486 1485 1484 1483 1482 1482 1481 1480 1480 1479 1479
1500 1499 1485 1483 1482 1485 1493 1501 1502 1517 1521 1526 1521 1513 1505 1500 1499 1498 1498 1497 1496 1495 1495 1495 1494 1493 1492 1491 1490 1489 1488 1488 1487 1486 1485 1484 1482 1481 1480 1480 1479 1478 1478 1477
1491 1498 1489 1485 1483 1487 1491 1498 1509 1517 1525 1527 1521 1516 1514 1504 1501 1499 1497 1496 1495 1495 1495 1494 1493 1492 1491 1490 1490 1489 1488 1487 1486 1485 1484 1483 1482 1481 1480 1479 1478 1477 1477 1476
1488 1498 1496 1490 1492 1495 1496 1501 1509 1518 1519 1527 1530 1521 1502 1500 1499 1498 1497 1496 1495 1495 1494 1494 1493 1492 1491 1490 1489 1488 1487 1486 1485 1484 1483 1482 1481 1480 1479 1478 1477 1476 1475 1475
1490 1500 1505 1497 1491 1489 1491 1498 1506 1515 1520 1522 1526 1521 1497 1496 1496 1496 1496 1495 1495 1494 1494 1493 1492 1491 1490 1489 1488 1487 1485 1484 1483 1483 1482 1481 1480 1479 1478 1477 1476 1476 1475 1474
1490 1501 1512 1508 1504 1496 1496 1498 1502 1509 1518 1524 1524 1516 1497 1496 1495 1495 1495 1494 1494 1494 1493 1492 1492 1490 1489 1488 1487 1485 1484 1483 1482 1481 1481 1480 1479 1478 1477 1477 1476 1475 1474 1473
1487 1501 1509 1514 1509 1501 1500 1499 1501 1507 1517 1519 1515 1507 1500 1497 1496 1494 1494 1493 1493 1493 1492 1491 1490 1489 1488 1487 1486 1484 1483 1482 1481 1480 1480 1480 1479 1478 1477 1476 1475 1474 1473 1472
1488 1500 1500 1500 1497 1497 1498 1498 1499 1502 1505 1510 1506 1504 1498 1495 1494 1493 1493 1492 1492 1492 1491 1490 1489 1488 1487 1486 1484 1483 1481 1481 1480 1480 1479 1479 1478 1478 1477 1476 1475 1474 1473 1471
1491 1498 1500 1501 1496 1497 1499 1497 1497 1498 1499 1501 1501 1500 1493 1492 1492 1492 1492 1492 1492 1491 1490 1489 1488 1487 1486 1484 1483 1482 1481 1480 1480 1479 1479 1479 1478 1477 1476 1475 1475 1473 1472 1471
1495 1500 1506 1509 1501 1499 1505 1498 1496 1497 1496 1498 1500 1497 1492 1492 1491 1490 1490 1490 1491 1490 1490 1489 1487 1486 1485 1484 1482 1481 1480 1480 1479 1479 1478 1478 1478 1477 1476 1475 1474 1473 1471 1470
1495 1502 1509 1511 1506 1512 1503 1492 1492 1494 1494 1494 1493 1492 1491 1490 1490 1490 1490 1490 1489 1489 1489 1488 1486 1485 1484 1483 1482 1481 1480 1479 1479 1478 1478 1478 1477 1476 1475 1474 1473 1472 1471 1470
1490 1498 1509 1515 1513 1509 1498 1491 1492 1494 1495 1492 1492 1491 1490 1490 1490 1489 1489 1488 1488 1488 1488 1487 1486 1485 1483 1482 1482 1480 1479 1479 1478 1478 1477 1477 1476 1475 1474 1473 1472 1471 1470 1469
1492 1495 1506 1513 1512 1512 1499 1489 1488 1492 1497 1490 1489 1490 1489 1489 1493 1489 1486 1486 1487 1487 1487 1486 1484 1483 1482 1481 1481 1480 1479 1478 1478 1477 1477 1476 1475 1474 1474 1472 1472 1471 1470 1469
1498 1502 1506 1510 1511 1504 1492 1488 1489 1500 1499 1488 1487 1487 1487 1488 1488 1486 1485 1485 1485 1485 1485 1484 1483 1482 1481 1481 1480 1479 1478 1478 1477 1476 1476 1475 1474 1474 1473 1472 1471 1470 1469 1468
1498 1503 1506 1509 1511 1506 1488 1488 1492 1492 1486 1486 1485 1485 1485 1485 1485 1484 1483 1483 1483 1483 1483 1482 1481 1481 1480 1479 1479 1478 1477 1477 1476 1475 1474 1474 1473 1473 1472 1471 1470 1469 1468 1467
1494 1495 1497 1499 1498 1489 1487 1486 1486 1486 1485 1484 1484 1484 1484 1483 1483 1483 1482 1482 1482 1482 1481 1481 1480 1479 1479 1478 1477 1476 1476 1475 1474 1474 1473 1473 1472 1471 1471 1470 1469 1468 1467 1466
1490 1489 1492 1493 1489 1486 1485 1485 1484 1484 1484 1483 1483 1482 1482 1482 1481 1481 1481 1481 1480 1480 1479 1479 1478 1477 1476 1476 1475 1474 1474 1473 1473 1472 1471 1471 1470 1470 1469 1468 1467 1467 1466 1465
1488 1489 1491 1491 1487 1485 1483 1483 1483 1483 1482 1482 1481 1481 1481 1480 1480 1479 1479 1478 1478 1478 1477 1477 1476 1475 1474 1474 1473 1472 1472 1471 1471 1470 1469 1469 1468 1468 1467 1466 1466 1465 1464 1464
1485 1487 1489 1488 1483 1484 1482 1482 1481 1481 1480 1480 1479 1479 1479 1478 1478 1477 1476 1476 1476 1475 1475 1474 1473 1472 1472 1471 1471 1470 1470 1469 1469 1468 1468 1467 1467 1466 1465 1465 1464 1463 1463 1462